| time (UTC) | temp C | wind direction | speed KPH | gust KPH | rain 1hr cm | rain 24hr cm | rain mn cm | humidity % | barometer mb |
| 20260502214504 | 14 | 209 | 9.7 | 14.5 | 0.00 | 0.00 | 0.00 | 61 | 1010.3 |
| 20260502213004 | 15 | 216 | 8.0 | 12.9 | 0.00 | 0.00 | 0.00 | 60 | 1010.3 |
| 20260502211503 | 14 | 217 | 8.0 | 14.5 | 0.00 | 0.00 | 0.00 | 61 | 1010.3 |
| 20260502210004 | 14 | 224 | 6.4 | 11.3 | 0.00 | 0.00 | 0.00 | 61 | 1010.3 |
| 20260502201504 | 15 | 219 | 9.7 | 14.5 | 0.00 | 0.00 | 0.00 | 57 | 1010.4 |
| 20260502200003 | 16 | 231 | 3.2 | 12.9 | 0.00 | 0.00 | 0.00 | 54 | 1010.4 |
| 20260502193004 | 18 | 210 | 8.0 | 16.1 | 0.00 | 0.00 | 0.00 | 49 | 1010.0 |
| 20260502191504 | 18 | 188 | 9.7 | 19.3 | 0.00 | 0.00 | 0.00 | 48 | 1010.0 |
| 20260502183004 | 20 | 199 | 9.7 | 24.1 | 0.00 | 0.00 | 0.00 | 44 | 1009.6 |
| 20260502181504 | 21 | 197 | 12.9 | 29.0 | 0.00 | 0.00 | 0.00 | 42 | 1009.6 |
| 20260502161503 | 23 | 195 | 19.3 | 35.4 | 0.00 | 0.00 | 0.00 | 37 | 1009.9 |
| 20260502151504 | 25 | 214 | 16.1 | 33.8 | 0.00 | 0.00 | 0.00 | 36 | 1010.7 |
| 20260502123004 | 25 | 224 | 17.7 | 33.8 | 0.00 | 0.00 | 0.00 | 32 | 1012.8 |
| 20260502121504 | 25 | 190 | 14.5 | 37.0 | 0.00 | 0.00 | 0.00 | 32 | 1013.0 |
| 20260502114504 | 25 | 200 | 20.9 | 35.4 | 0.00 | 0.00 | 0.00 | 31 | 1013.4 |
| 20260502113003 | 25 | 237 | 16.1 | 33.8 | 0.00 | 0.00 | 0.00 | 32 | 1013.8 |
| 20260502111504 | 25 | 223 | 16.1 | 37.0 | 0.00 | 0.00 | 0.00 | 32 | 1014.2 |
| 20260502104503 | 25 | 233 | 12.9 | 32.2 | 0.00 | 0.00 | 0.00 | 33 | 1014.6 |
| 20260502103004 | 25 | 246 | 19.3 | 35.4 | 0.00 | 0.00 | 0.00 | 33 | 1015.2 |
| 20260502101503 | 24 | 189 | 14.5 | 40.2 | 0.00 | 0.00 | 0.00 | 34 | 1015.2 |
| 20260502091503 | 23 | 240 | 12.9 | 20.9 | 0.00 | 0.00 | 0.00 | 38 | 1016.0 |
| 20260502071503 | 19 | 252 | 11.3 | 22.5 | 0.00 | 0.00 | 0.00 | 44 | 1017.5 |
| 20260502070003 | 18 | 216 | 9.7 | 19.3 | 0.00 | 0.00 | 0.00 | 47 | 1017.7 |
| 20260502064504 | 18 | 253 | 11.3 | 20.9 | 0.00 | 0.00 | 0.00 | 47 | 1017.7 |
| 20260502063004 | 17 | 253 | 14.5 | 22.5 | 0.00 | 0.00 | 0.00 | 50 | 1018.0 |
| 20260502060004 | 16 | 243 | 4.8 | 16.1 | 0.00 | 0.00 | 0.00 | 56 | 1018.1 |
| 20260502054504 | 15 | 239 | 4.8 | 16.1 | 0.00 | 0.00 | 0.00 | 59 | 1018.2 |
| 20260502053003 | 14 | 232 | 8.0 | 14.5 | 0.00 | 0.00 | 0.00 | 61 | 1018.3 |
| 20260502051504 | 13 | 247 | 9.7 | 16.1 | 0.00 | 0.00 | 0.00 | 65 | 1018.4 |
| 20260502050004 | 12 | 232 | 9.7 | 14.5 | 0.00 | 0.00 | 0.00 | 69 | 1018.5 |
| 20260502044504 | 10 | 238 | 9.7 | 14.5 | 0.00 | 0.00 | 0.00 | 72 | 1018.5 |
| 20260502043004 | 9 | 240 | 8.0 | 12.9 | 0.00 | 0.00 | 0.00 | 76 | 1018.5 |
| 20260502040003 | 6 | 246 | 4.8 | 11.3 | 0.00 | 0.00 | 0.00 | 80 | 1018.5 |
| 20260502034505 | 7 | 245 | 8.0 | 14.5 | 0.00 | 0.00 | 0.00 | 79 | 1018.7 |
| 20260502031504 | 3 | 237 | 12.9 | 16.1 | 0.00 | 0.00 | 0.00 | 89 | 1018.5 |
| 20260502030004 | 3 | 245 | 9.7 | 11.3 | 0.00 | 0.00 | 0.00 | 87 | 1018.6 |
| 20260502024503 | 3 | 252 | 6.4 | 9.7 | 0.00 | 0.00 | 0.00 | 86 | 1018.6 |
| 20260502023003 | 4 | 252 | 3.2 | 4.8 | 0.00 | 0.00 | 0.00 | 85 | 1018.9 |
| 20260502021504 | 4 | 252 | 3.2 | 4.8 | 0.00 | 0.00 | 0.00 | 85 | 1018.9 |
| 20260502020004 | 5 | 254 | 4.8 | 8.0 | 0.00 | 0.00 | 0.00 | 83 | 1019.4 |
| 20260502014504 | 5 | 255 | 3.2 | 4.8 | 0.00 | 0.00 | 0.00 | 82 | 1019.4 |
| 20260502011504 | 6 | 257 | 3.2 | 9.7 | 0.00 | 0.00 | 0.00 | 77 | 1019.4 |
| 20260502010004 | 7 | 259 | 4.8 | 4.8 | 0.00 | 0.00 | 0.00 | 74 | 1019.6 |
| 20260502004504 | 8 | 261 | 4.8 | 8.0 | 0.00 | 0.00 | 0.00 | 71 | 1019.6 |
| 20260502001503 | 10 | 254 | 8.0 | 12.9 | 0.00 | 0.00 | 0.00 | 65 | 1019.7 |
| 20260502000004 | 10 | 266 | 8.0 | 16.1 | 0.00 | 0.00 | 0.00 | 62 | 1019.7 |
| 20260501234503 | 10 | 259 | 8.0 | 14.5 | 0.00 | 0.00 | 0.00 | 63 | 1019.7 |
| 20260501233004 | 10 | 267 | 6.4 | 14.5 | 0.00 | 0.00 | 0.00 | 65 | 1019.6 |
| 20260501231504 | 8 | 265 | 6.4 | 14.5 | 0.00 | 0.00 | 0.00 | 67 | 1019.8 |
| 20260501230004 | 9 | 273 | 8.0 | 12.9 | 0.00 | 0.00 | 0.00 | 67 | 1019.8 |
| 20260501224503 | 9 | 262 | 4.8 | 14.5 | 0.00 | 0.00 | 0.00 | 66 | 1019.9 |
| 20260501223003 | 10 | 253 | 8.0 | 11.3 | 0.00 | 0.00 | 0.00 | 64 | 1019.9 |
| 20260501221503 | 10 | 254 | 4.8 | 11.3 | 0.00 | 0.00 | 0.00 | 64 | 1019.9 |